TERRESTAR-1

Last updated on Sat Apr 13 2024 01:02:37 GMT+0100 (British Summer Time)

1 35496U 09035A 24103.47380285 -.00000064 00000+0 00000+0 0 9990 2 35496 4.3058 47.1045 0003028 334.9590 238.6604 1.00272072 54151
UTC large
Height (km)
Speed (km/s)
/
Latitude / Longitude
Inclination (degrees)
Orbital Period (minutes)
Azimuth
Elevation
Range (km)
Doppler Factor

Next 0 passes for location: London (51.5072 / 0.1276)

Sorry there are no passes over London.